KB9VKQ-13 Weather Reports


time (UTC)temp
C
wind
direction
speed
KPH
gust
KPH
rain 1hr
cm
rain 24hr
cm
rain mn
cm
humidity
%
barometer
mb
20260906113705 22 354 6.4 9.7 0.00 0.00 0.00
20260906113020 22 7 6.4 9.7 0.00 0.00 0.00
20260906112735 22 7 6.4 9.7 0.00 0.00 0.00
20260906112705 22 7 6.4 9.7 0.00 0.00 0.00
20260906111635 22 1 6.4 11.3 0.00 0.00 0.00
20260906110905 22 51 4.8 11.3 0.00 0.00 0.00
20260906110635 22 51 4.8 11.3 0.00 0.00 0.00
20260906105634 22 100 6.4 14.5 0.00 0.00 0.00
20260906104819 22 32 4.8 14.5 0.00 0.00 0.00
20260906104741 22 32 4.8 14.5 0.00 0.00 0.00
20260906104709 22 32 4.8 14.5 0.00 0.00 0.00
20260906104635 22 32 4.8 14.5 0.00 0.00 0.00
20260906103907 22 80 9.7 17.7 0.00 0.00 0.00
20260906103730 22 80 9.7 17.7 0.00 0.00 0.00
20260906103655 22 80 9.7 17.7 0.00 0.00 0.00
20260906103604 22 80 9.7 17.7 0.00 0.00 0.00
20260906102648 22 0 8.0 17.7 0.00 0.00 0.00
20260906102534 22 0 8.0 17.7 0.00 0.00 0.00
20260906101534 22 51 9.7 14.5 0.00 0.00 0.00
20260906101006 22 68 8.0 19.3 0.00 0.00 0.00
20260906100542 22 68 8.0 19.3 0.00 0.00 0.00
20260906100504 22 68 8.0 19.3 0.00 0.00 0.00
20260906095723 22 357 6.4 17.7 0.00 0.00 0.00
20260906095504 22 357 6.4 17.7 0.00 0.00 0.00
20260906094434 22 39 11.3 20.9 0.00 0.00 0.00
20260906093650 22 59 11.3 17.7 0.00 0.00 0.00
20260906093434 22 59 11.3 17.7 0.00 0.00 0.00
20260906092802 22 30 8.0 16.1 0.00 0.00 0.00
20260906092729 22 30 8.0 16.1 0.00 0.00 0.00
20260906092438 22 30 8.0 16.1 0.00 0.00 0.00
20260906092404 22 30 8.0 16.1 0.00 0.00 0.00
20260906092229 22 27 11.3 16.1 0.00 0.00 0.00
20260906091706 22 27 11.3 16.1 0.00 0.00 0.00
20260906091404 22 27 11.3 16.1 0.00 0.00 0.00
20260906090334 22 52 11.3 19.3 0.00 0.00 0.00
20260906085357 21 359 11.3 16.1 0.00 0.00 0.00
20260906085306 21 359 11.3 16.1 0.00 0.00 0.00
20260906084343 21 55 8.0 11.3 0.00 0.00 0.00
20260906084304 21 55 8.0 11.3 0.00 0.00 0.00
20260906083304 21 39 6.4 11.3 0.00 0.00 0.00
20260906082306 21 58 6.4 9.7 0.00 0.00 0.00
20260906081234 22 20 8.0 11.3 0.00 0.00 0.00
20260906080234 22 58 6.4 9.7 0.00 0.00 0.00
20260906075639 22 10 4.8 12.9 0.00 0.00 0.00
20260906075204 22 10 4.8 12.9 0.00 0.00 0.00
20260906074134 22 72 9.7 11.3 0.00 0.00 0.00
20260906073635 22 97 6.4 17.7 0.00 0.00 0.00
20260906073134 22 97 6.4 17.7 0.00 0.00 0.00
20260906072508 22 25 8.0 14.5 0.00 0.00 0.00
20260906072104 22 25 8.0 14.5 0.00 0.00 0.00
20260906071412 23 75 8.0 16.1 0.00 0.00 0.00
20260906071104 23 75 8.0 16.1 0.00 0.00 0.00
20260906070447 23 41 9.7 14.5 0.00 0.00 0.00
20260906070034 23 41 9.7 14.5 0.00 0.00 0.00
20260906065034 23 58 4.8 16.1 0.00 0.00 0.00
20260906064034 23 42 8.0 12.9 0.00 0.00 0.00
20260906063004 23 28 8.0 17.7 0.00 0.00 0.00
20260906062004 23 90 6.4 17.7 0.00 0.00 0.00
20260906060934 24 0 6.4 17.7 0.00 0.00 0.00
20260906055904 24 65 6.4 14.5 0.00 0.00 0.00
20260906054834 25 42 8.0 14.5 0.00 0.00 0.00
20260906053804 25 35 6.4 11.3 0.00 0.00 0.00
20260906052804 25 76 8.0 12.9 0.00 0.00 0.00
20260906051804 25 48 8.0 14.5 0.00 0.00 0.00
20260906050734 25 38 8.0 12.9 0.00 0.00 0.00
20260906045704 26 23 8.0 12.9 0.00 0.00 0.00
20260906044704 26 49 6.4 12.9 0.00 0.00 0.00
20260906043704 26 55 4.8 14.5 0.00 0.00 0.00
20260906042704 26 23 9.7 16.1 0.00 0.00 0.00
20260906041634 26 96 8.0 20.9 0.00 0.00 0.00
20260906040634 27 34 11.3 17.7 0.00 0.00 0.00
20260906035604 27 51 8.0 20.9 0.00 0.00 0.00
20260906034604 27 59 11.3 22.5 0.00 0.00 0.00
20260906033534 27 41 9.7 22.5 0.00 0.00 0.00
20260906032504 28 53 16.1 27.4 0.00 0.00 0.00
20260906031504 28 63 14.5 27.4 0.00 0.00 0.00
20260906030753 28 39 14.5 25.7 0.00 0.00 0.00
20260906030434 28 39 14.5 25.7 0.00 0.00 0.00
20260906025404 28 41 9.7 14.5 0.00 0.00 0.00
20260906024647 28 44 4.8 12.9 0.00 0.00 0.00
20260906024404 28 44 4.8 12.9 0.00 0.00 0.00
20260906023404 29 80 8.0 11.3 0.00 0.00 0.00
20260906022404 29 49 8.0 17.7 0.00 0.00 0.00
20260906021404 30 31 9.7 16.1 0.00 0.00 0.00
20260906020334 30 45 8.0 12.9 0.00 0.00 0.00
20260906015306 30 46 6.4 9.7 0.00 0.00 0.00
20260906014234 30 45 4.8 11.3 0.00 0.00 0.00
20260906013234 30 6 4.8 8.0 0.00 0.00 0.00
20260906012204 30 39 3.2 9.7 0.00 0.00 0.00
20260906011204 31 65 4.8 9.7 0.00 0.00 0.00
20260906010204 31 17 4.8 9.7 0.00 0.00 0.00
20260906005204 31 51 8.0 11.3 0.00 0.00 0.00
20260906004204 31 14 4.8 9.7 0.00 0.00 0.00
20260906003204 32 75 3.2 9.7 0.00 0.00 0.00
20260906002203 32 14 0.0 0.0 0.00 0.00 0.00
20260906001203 32 14 0.0 0.0 0.00 0.00 0.00
20260906000133 33 14 0.0 4.8 0.00 0.00 0.00
20260905235133 33 70 6.4 9.7 0.00 0.00 0.00
20260905234103 33 31 3.2 8.0 0.00 0.00 0.00
20260905233033 34 17 1.6 11.3 0.00 0.00 0.00
20260905232003 35 37 4.8 6.4 0.00 0.00 0.00
20260905231348 35 86 3.2 6.4 0.00 0.00 0.00
20260905230933 35 86 3.2 6.4 0.00 0.00 0.00
20260905225933 35 30 3.2 6.4 0.00 0.00 0.00
20260905224933 35 93 1.6 6.4 0.00 0.00 0.00
20260905223933 35 118 3.2 9.7 0.00 0.00 0.00
20260905222903 36 118 1.6 6.4 0.00 0.00 0.00
20260905221833 35 332 1.6 8.0 0.00 0.00 0.00
20260905220803 35 0 3.2 8.0 0.00 0.00 0.00
20260905215733 35 349 1.6 12.9 0.00 0.00 0.00
20260905214703 36 356 4.8 11.3 0.00 0.00 0.00
20260905213703 37 44 3.2 12.9 0.00 0.00 0.00
20260905212703 37 353 0.0 9.7 0.00 0.00 0.00
20260905211633 37 346 3.2 14.5 0.00 0.00 0.00
20260905210603 37 329 4.8 11.3 0.00 0.00 0.00
20260905205533 36 330 8.0 14.5 0.00 0.00 0.00
20260905204533 36 319 11.3 20.9 0.00 0.00 0.00
20260905203503 36 333 8.0 20.9 0.00 0.00 0.00
20260905202433 37 308 11.3 16.1 0.00 0.00 0.00
20260905201433 37 340 8.0 12.9 0.00 0.00 0.00
20260905200403 36 322 4.8 16.1 0.00 0.00 0.00
20260905195403 37 48 4.8 17.7 0.00 0.00 0.00
20260905194333 38 7 9.7 16.1 0.00 0.00 0.00
20260905193333 37 321 12.9 19.3 0.00 0.00 0.00
20260905192306 36 14 8.0 19.3 0.00 0.00 0.00
20260905191303 37 326 8.0 14.5 0.00 0.00 0.00
20260905190233 37 335 8.0 16.1 0.00 0.00 0.00
20260905185233 36 10 11.3 19.3 0.00 0.00 0.00
20260905184203 36 308 9.7 14.5 0.00 0.00 0.00
20260905183133 36 298 1.6 12.9 0.00 0.00 0.00
20260905182133 36 298 8.0 14.5 0.00 0.00 0.00
20260905181103 36 353 8.0 14.5 0.00 0.00 0.00
20260905180033 36 301 8.0 12.9 0.00 0.00 0.00
20260905175003 36 315 6.4 12.9 0.00 0.00 0.00
20260905173933 36 297 9.7 14.5 0.00 0.00 0.00
20260905172903 36 259 4.8 16.1 0.00 0.00 0.00
20260905171903 36 304 3.2 12.9 0.00 0.00 0.00
20260905170903 36 333 1.6 11.3 0.00 0.00 0.00
20260905165833 35 326 4.8 11.3 0.00 0.00 0.00
20260905164833 36 329 0.0 9.7 0.00 0.00 0.00
20260905163833 35 333 3.2 11.3 0.00 0.00 0.00
20260905162803 34 323 4.8 11.3 0.00 0.00 0.00
20260905161733 34 321 1.6 9.7 0.00 0.00 0.00
20260905160703 34 295 8.0 12.9 0.00 0.00 0.00
20260905155633 33 323 0.0 9.7 0.00 0.00 0.00
20260905154603 34 295 4.8 12.9 0.00 0.00 0.00
20260905153533 33 277 3.2 11.3 0.00 0.00 0.00
20260905152503 33 300 1.6 11.3 0.00 0.00 0.00
20260905151433 32 300 6.4 12.9 0.00 0.00 0.00
20260905150433 32 302 6.4 11.3 0.00 0.00 0.00
20260905145403 32 322 9.7 14.5 0.00 0.00 0.00
20260905144403 32 300 8.0 12.9 0.00 0.00 0.00
20260905143333 31 309 4.8 11.3 0.00 0.00 0.00
20260905143135 31 330 4.8 8.0 0.00 0.00 0.00
20260905142717 31 330 4.8 8.0 0.00 0.00 0.00
20260905142333 31 330 4.8 8.0 0.00 0.00 0.00
20260905141631 31 312 6.4 9.7 0.00 0.00 0.00
20260905141333 31 312 6.4 9.7 0.00 0.00 0.00
20260905140303 31 283 3.2 6.4 0.00 0.00 0.00
20260905135306 30 283 4.8 6.4 0.00 0.00 0.00
20260905134233 30 245 0.0 0.0 0.00 0.00 0.00
20260905133233 28 245 0.0 1.6 0.00 0.00 0.00
20260905132203 27 262 0.0 0.0 0.00 0.00 0.00
20260905131133 26 262 0.0 0.0 0.00 0.00 0.00
20260905125401 25 262 0.0 0.0 0.00 0.00 0.00
20260905125033 25 262 0.0 0.0 0.00 0.00 0.00
20260905124033 25 262 0.0 0.0 0.00 0.00 0.00
20260905123033 25 262 0.0 0.0 0.00 0.00 0.00
20260905122003 24 262 0.0 0.0 0.00 0.00 0.00
20260905121003 23 262 0.0 0.0 0.00 0.00 0.00
20260905120449 23 262 0.0 0.0 0.00 0.00 0.00
20260905120003 23 262 0.0 0.0 0.00 0.00 0.00
20260905115310 23 262 0.0 0.0 0.00 0.00 0.00
20260905114933 23 262 0.0 0.0 0.00 0.00 0.00
20260905114235 23 262 0.0 0.0 0.00 0.00 0.00